Flag for Brazil Weather past 2 weeks in Itabuna, Bahia, Brazil

Now
81 °F

Passing clouds.


Feels Like: 84 °F
Forecast: 72 / 87 °F
Wind: 9 mph from East

Location: Salvador Aeroporto

Current Time: Mar 6, 2015 at 10:52:26 PM

Latest Report: Mar 6, 2015 at 10:00 PM


Visibility: N/A

Pressure: 29.92 "Hg

Humidity: 70%

Dew point: 70 °F

Location of ItabunaLocation

Historic Weather in Itabuna — Graph

°F

Itabuna temperature yesterday

Maximum temperature yesterday: 86 °F (at 12:00 PM)
Minimum temperature yesterday: 79 °F (at 4:00 AM)
Average temperature yesterday: 82 °F

Past Weeks' High & Low Weather Summary

 TemperatureHumidityPressure
High88 °F (Feb 28, 12:00 PM)100% (Feb 26, 9:00 AM)30.04 "Hg (Feb 26, 9:00 AM)
Low43 °F (Feb 26, 9:00 AM)55% (Mar 4, 12:00 PM)29.80 "Hg (Feb 27, 3:00 PM)
Average80 °F75%29.91 "Hg
* Reported Feb 19 9:00 PM — Mar 6 9:00 PM, Itabuna, Weather by CustomWeather, © 2015

Note: Actual official high and low records may vary slightly from our data, if they occured in-between our weather recording intervals... More about our weather records

Advertising

Itabuna weather history for previous 24 hours

 ConditionsComfort  
Time TempWeatherWind HumidityBarometerVisibility
9:00 PM
Fri, Mar 6
79 °FPassing clouds.10 mph74%29.92 "HgN/A
8:00 PM81 °FPassing clouds.10 mph70%29.92 "HgN/A
7:00 PM81 °FPassing clouds.16 mph70%29.89 "HgN/A
6:00 PM81 °FPartly cloudy.9 mph74%29.86 "HgN/A
5:00 PM82 °FBroken clouds.13 mph70%29.86 "HgN/A
4:00 PM82 °FBroken clouds.16 mph70%29.86 "HgN/A
3:00 PM82 °FBroken clouds.13 mph70%29.86 "HgN/A
2:00 PM82 °FBroken clouds.6 mph70%29.89 "HgN/A
1:00 PM82 °FScattered clouds.8 mph74%29.89 "HgN/A
12:00 PM82 °FScattered clouds.6 mph74%29.92 "HgN/A
11:00 AM82 °FScattered clouds.7 mph70%29.95 "Hg5 mi
10:00 AM82 °FLight rain. Broken clouds.2 mph74%N/A5 mi
9:00 AM82 °FScattered clouds.2 mph74%29.95 "HgN/A
8:00 AM79 °FScattered clouds.3 mph79%29.92 "HgN/A
7:00 AM75 °FScattered clouds.5 mph83%29.92 "HgN/A
6:00 AM73 °FScattered clouds.2 mph89%29.89 "HgN/A
5:00 AM72 °FPassing clouds.1 mph88%29.89 "HgN/A
4:00 AM72 °FPassing clouds.2 mph88%29.86 "HgN/A
3:00 AM72 °FPassing clouds.3 mph88%29.89 "HgN/A
2:00 AM75 °FPassing clouds.3 mph83%29.89 "HgN/A
1:00 AM75 °FPassing clouds.3 mph83%29.89 "HgN/A
12:00 AM75 °FPassing clouds.3 mph83%29.92 "HgN/A
11:00 PM
Thu, Mar 5
79 °FPassing clouds.14 mph79%29.92 "HgN/A
10:00 PM81 °FPassing clouds.8 mph74%29.95 "HgN/A
Weather by CustomWeather, © 2015

See weather overviewHow to use our weather pages